ECHO 1 DEB (METAL OBJ), 53

Orbit data source: Space-Track

ECHO 1 DEB (METAL OBJ), 53 is space debris in LEO originally from a launch on Fri, 12 Aug 1960 UTC launched from the Air Force Eastern Test Range (AFETR). Debris objects in space refer to the collection of defunct objects orbiting the Earth. Examples of debris include non-operational satellites, rocket bodies, and fragments generated from explosions, collisions, or faulty payload assembly.

Loading next visibility...
Identifier
53, 1960-009E
Orbit
LEO
Country
Flag of USUS
Related business
Manufacturer
Kaiser-Fleetwings
Mission
Spacecraft
Bus & Motor
ECHO CANISTER, Unknown motor
Mass
5 kg wet, 5 kg dry
Launch date (UTC)
1960-08-12 (65 years ago)
Launch vehicle
Unknown
Launch site
Air Force Eastern Test Range (AFETR)
Object type
Payload
Rocket body
Debris
Shape & HBR
Unknown
Radar Cross Section
0.590 m², Medium (>0.1 m² and < 1m²)

Expand to show TLE details & history
Last TLE update: 1 day ago

TLE from 1 day ago
0 ECHO 1 DEB (METAL OBJ)
1 00053U 60009E   25259.88535075 -.00000022  00000-0  61650-3 0  9993
2 00053  47.2757 105.3827 0099359 348.9881  10.8736 12.17388572902138
Epoch: 2025-09-16T21:14Z
TLE epoch observation values (Epoch: 2025-09-16T21:14:54.304Z)
Latitude
-0°
Longitude
150.5872°
Altitude
1,526.302 km
Speed
7.138 km/s
True Right ascension
07h 01m 31s
True Declination
0° 00' 00"
Sunlit
Object was in daylight at epoch
Visualization orbit readout
Latitude
Unknown
Longitude
Unknown
Altitude
Unknown
Speed
Unknown
Apparent Right ascension
Unknown
Apparent Declination
Unknown
Sunlit
N/A
Visualization observer readout
Local Sidereal Time
14:33:50
Azimuth
Unknown
Elevation
Unknown
Doppler factor
Unknown
Orbital elements
Apogee altitude
1,684.312 km
Perigee altitude
1,525.673 km
Semi-major axis
7,983.129 km
Eccentricity
0.00994
Inclination
47.2757°
RAAN
105.3827°
Arg. of periapsis
348.9881°
True anomaly
11.09103°
Mean anomaly
10.8736°
Eccentric anomaly
10.98205°
Mean motion
3.04287 °/min
Orbital period
118.31 mins
BSTAR
0.0006165
Loading maneuver chart data...
Computing Atmospheric mass density...
Loading historical data...
Loading historical data...
Loading historical data...
Loading historical data...
Loading historical data...
Loading historical data...
Loading historical data...
Other satellites on launch #9 in the year 1960 (1960-08-12 UTC)

Documentation

Showing up to 5 results
|